Location: Bettgenhausen
(50.6463°N, 7.5681°E)
Time: 09:11:39
(UTC+00:00)

STARLINK-1036 - Pass Details

Date: 27 February 2020
Orbit: 549 x 550 km, 53.0° (Epoch: 04 April)

Event Time Altitude Azimuth Distance (km) Brightness Sun altitude
Rises 18:40:32 0° 260° (W) 2,716 8.7 -15.6°
Reaches altitude 10° 18:42:46 10° 262° (W) 1,824 7.5 -16.0°
Maximum altitude 18:46:54 72° 347° (NNW) 583 3.7 -16.6°
Enters shadow 18:48:48 31° 66° (ENE) 985 4.4 -16.9°
